Weather History for Budapest Ferihegy, Hungary

Change the Weather History Date:

Wednesday, December 19, 2012

  Actual Average Record
Temperature  
Mean Temperature 38 °F -  
Max Temperature 41 °F 35 °F 55 °F (2014)
Min Temperature 35 °F 22 °F 0 °F (2010)
Degree Days  
Heating Degree Days 27    
Moisture  
Dew Point 36 °F    
Average Humidity 95    
Maximum Humidity 100    
Minimum Humidity 81    
Precipitation  
Precipitation 0.00 in - - ()
Sea Level Pressure  
Sea Level Pressure 30.08 in    
Wind  
Wind Speed 7 mph ()    
Max Wind Speed 13 mph    
Max Gust Speed -    
Visibility 4.5 miles    
Events Rain    
Averages and records for this station are not official NWS values.
T = Trace of Precipitation, MM = Missing Value Source: Averaged Metar Reports

Daily Weather History Graph

Daily Weather History Graph

Search for Another Location

Airport:

Trip Planner

Search our weather history database for the weather conditions in past years. The results will help you decide how hot, cold, wet, or windy it might be!

Date:

Astronomy

Dec. 19, 2012 Rise Set
Actual Time 7:26 AM CET 3:53 PM CET
Civil Twilight 6:50 AM CET 4:29 PM CET
Nautical Twilight 6:11 AM CET 5:08 PM CET
Astronomical Twilight 5:34 AM CET 5:46 PM CET
Moon 11:01 AM CET (12/19) 11:31 PM CET (12/19)
Length of Visible Light 9h 38m
Length of Day
8h 27m
Waxing Crescent, 42% of the Moon is Illuminated
Dec 19
Waxing Crescent
Dec 20
First Quarter
Dec 28
Full
Jan 5
Last Quarter
Jan 11
New

Hourly Weather History & Observations

Time (CET) Temp. Windchill Dew Point Humidity Pressure Visibility Wind Dir Wind Speed Gust Speed Precip Events Conditions
12:00 AM 35.6 °F 29.9 °F 35.6 °F 100% 30.01 in 3.7 mi NW 6.9 mph - N/A   Overcast
12:30 AM 35.6 °F 29.9 °F 35.6 °F 100% 30.01 in 3.7 mi WNW 6.9 mph - N/A   Overcast
1:00 AM 35.6 °F - 35.6 °F 100% 30.01 in 3.7 mi Variable 1.2 mph - N/A Rain Light Rain
1:30 AM 37.4 °F 33.8 °F 37.4 °F 100% 30.01 in 3.7 mi NW 4.6 mph - N/A Rain Light Rain
2:00 AM 35.6 °F 29.9 °F 35.6 °F 100% 30.04 in 3.7 mi NW 6.9 mph - N/A Rain Light Rain
2:30 AM 37.4 °F 30.8 °F 37.4 °F 100% 30.04 in 3.7 mi NNW 9.2 mph - N/A Rain Light Rain
3:00 AM 35.6 °F 29.2 °F 35.6 °F 100% 30.01 in 3.7 mi NW 8.1 mph - N/A   Mostly Cloudy
3:30 AM 35.6 °F 29.2 °F 35.6 °F 100% 30.01 in 3.7 mi NW 8.1 mph - N/A   Unknown
4:00 AM 35.6 °F 29.2 °F 35.6 °F 100% 30.04 in 5.0 mi NW 8.1 mph - N/A   Mostly Cloudy
4:30 AM 35.6 °F 29.9 °F 35.6 °F 100% 30.04 in 5.0 mi NW 6.9 mph - N/A   Mostly Cloudy
5:00 AM 35.6 °F 28.6 °F 35.6 °F 100% 30.04 in 5.0 mi NW 9.2 mph - N/A   Mostly Cloudy
5:30 AM 35.6 °F 28.0 °F 35.6 °F 100% 30.04 in 5.0 mi NNW 10.4 mph - N/A   Unknown
6:00 AM 35.6 °F 28.6 °F 35.6 °F 100% 30.04 in 5.0 mi NNW 9.2 mph - N/A   Unknown
6:30 AM 35.6 °F 28.6 °F 35.6 °F 100% 30.04 in 5.0 mi NNW 9.2 mph - N/A   Unknown
7:00 AM 35.6 °F 28.6 °F 35.6 °F 100% 30.04 in 3.7 mi NNW 9.2 mph - N/A   Unknown
7:30 AM 35.6 °F 28.6 °F 35.6 °F 100% 30.06 in 3.1 mi NNW 9.2 mph - N/A   Mist
8:00 AM 35.6 °F 28.6 °F 35.6 °F 100% 30.06 in 3.1 mi NNW 9.2 mph - N/A   Mist
8:30 AM 35.6 °F 28.6 °F 35.6 °F 100% 30.06 in 3.1 mi NNW 9.2 mph - N/A   Mist
9:00 AM 37.4 °F 30.3 °F 37.4 °F 100% 30.06 in 3.1 mi NNW 10.4 mph - N/A   Mist
9:30 AM 37.4 °F 29.8 °F 37.4 °F 100% 30.06 in 3.7 mi NNW 11.5 mph - N/A   Unknown
10:00 AM 37.4 °F 30.3 °F 37.4 °F 100% 30.09 in 5.0 mi NNW 10.4 mph - N/A   Unknown
10:30 AM 39.2 °F 32.5 °F 37.4 °F 93% 30.09 in - NNW 10.4 mph - N/A   Clear
11:00 AM 39.2 °F 33.6 °F 39.2 °F 100% 30.09 in 6.2 mi NNW 8.1 mph - N/A Rain Light Rain
11:30 AM 41.0 °F 34.7 °F 39.2 °F 93% 30.09 in - NNW 10.4 mph - N/A   Clear
12:00 PM 41.0 °F 34.7 °F 39.2 °F 93% 30.09 in - NNW 10.4 mph - N/A   Clear
12:30 PM 41.0 °F 33.9 °F 37.4 °F 87% 30.09 in - NNW 12.7 mph - N/A   Clear
1:00 PM 41.0 °F 34.3 °F 39.2 °F 93% 30.09 in 6.2 mi NNW 11.5 mph - N/A   Mostly Cloudy
1:30 PM 41.0 °F 34.3 °F 37.4 °F 87% 30.06 in 6.2 mi NNW 11.5 mph - N/A   Mostly Cloudy
2:00 PM 41.0 °F 34.3 °F 37.4 °F 87% 30.09 in - NNW 11.5 mph - N/A   Clear
2:30 PM 41.0 °F 34.3 °F 37.4 °F 87% 30.09 in - NNW 11.5 mph - N/A   Clear
3:00 PM 41.0 °F 34.7 °F 37.4 °F 87% 30.09 in - NNW 10.4 mph - N/A   Clear
3:30 PM 41.0 °F 34.7 °F 39.2 °F 93% 30.09 in - NW 10.4 mph - N/A   Clear
4:00 PM 41.0 °F 35.2 °F 39.2 °F 93% 30.09 in - NNW 9.2 mph - N/A   Clear
4:30 PM 41.0 °F 37.1 °F 37.4 °F 87% 30.09 in - NNW 5.8 mph - N/A   Clear
5:00 PM 39.2 °F 34.2 °F 37.4 °F 93% 30.12 in - NNW 6.9 mph - N/A   Clear
5:30 PM 39.2 °F 35.9 °F 37.4 °F 93% 30.12 in - ENE 4.6 mph - N/A   Clear
6:00 PM 39.2 °F 35.9 °F 37.4 °F 93% 30.12 in 6.2 mi NE 4.6 mph - N/A   Mostly Cloudy
6:30 PM 37.4 °F 33.8 °F 37.4 °F 100% 30.12 in 5.0 mi West 4.6 mph - N/A   Scattered Clouds
7:00 PM 37.4 °F - 37.4 °F 100% 30.12 in 4.3 mi Variable 1.2 mph - N/A   Mostly Cloudy
7:30 PM 39.2 °F - 37.4 °F 93% 30.12 in 4.3 mi Calm Calm - N/A   Mostly Cloudy
8:00 PM 39.2 °F 37.0 °F 37.4 °F 93% 30.15 in 3.7 mi Variable 3.5 mph - N/A   Scattered Clouds
8:30 PM 35.6 °F 31.7 °F 35.6 °F 100% 30.15 in 3.7 mi NE 4.6 mph - N/A   Mostly Cloudy
9:00 PM 37.4 °F 32.8 °F 37.4 °F 100% 30.15 in 3.7 mi NE 5.8 mph - N/A   Scattered Clouds
9:30 PM 35.6 °F 30.7 °F 33.8 °F 93% 30.15 in 5.0 mi NE 5.8 mph - N/A   Scattered Clouds
10:00 PM 35.6 °F 30.7 °F 32.0 °F 87% 30.15 in 6.2 mi East 5.8 mph - N/A   Mostly Cloudy
10:30 PM 35.6 °F - 32.0 °F 87% 30.15 in 6.2 mi Variable 2.3 mph - N/A   Scattered Clouds
11:00 PM 35.6 °F - 32.0 °F 87% 30.15 in 6.2 mi Variable 2.3 mph - N/A   Scattered Clouds
11:30 PM 35.6 °F 32.8 °F 30.2 °F 81% 30.15 in 5.0 mi Variable 3.5 mph - N/A   Unknown